Location: Baumgarten
(49.0970°N, 12.7493°E)
Time: 08:34:38
(UTC+00:00)

PSLV R/B - Pass Details

Date: 05 July 2020
Orbit: 597 x 702 km, 97.9° (Epoch: 04 August)

Event Time Altitude Azimuth Distance (km) Brightness Sun altitude
Rises 23:28:42 0° 16° (NNE) 2,856 8.5 -18.2°
Reaches altitude 10° 23:30:53 10° 19° (NNE) 1,951 7.3 -18.1°
Maximum altitude 23:35:05 66° 102° (ESE) 665 3.6 -18.1°
Enters shadow 23:36:33 38° 170° (S) 926 3.9 -18.1°
